{"data":{"norad_id":67584,"intl_designator":"2026-016Z","name":"STARLINK-36419","alt_names":[],"object_type":"PAYLOAD","status":"ACTIVE","operator":null,"country":"US","launch_date":"2026-01-25","launch_site_code":"AFWTR","launch_vehicle":null,"mission":null,"orbit_class":"UNKNOWN","rcs_meters":null,"size_class":null,"mass_kg":null,"dimensions":null,"purposes":["comms"],"wikipedia_slug":null,"has_3d_model":false,"image_url":null,"decayed_at":null,"tle_current":{"epoch":"2026-09-19T09:27:09.410688Z","epoch_age_seconds":164810,"freshness":"FRESH","line1":"1 67584U 26016Z   26262.39385892  .00010123  00000+0  31544-3 0  9996","line2":"2 67584  97.2866 321.1137 0000567  93.4714 266.6593 15.33448186 36553","mean_motion":15.33448186,"eccentricity":5.67e-5,"inclination_deg":97.2866,"raan_deg":321.1137,"arg_perigee_deg":93.4714,"mean_anomaly_deg":266.6593,"bstar":0.00031544,"rev_number":3655,"period_min":93.906009550687,"perigee_km":465.14565907167,"apogee_km":465.9217313285,"semimajor_km":6843.6706952001,"source":"CELESTRAK","updated_at":"2026-09-20T09:00:43.599989Z"}}}